Selawik, AK

3:23 PM AKST on February 25, 2017 (GMT -0900)
Selawik

Weather History for PASK - July, 2013

Change the Weather History Date:

Friday, July 5, 2013

  Actual Average Record
Temperature  
Mean Temperature 50 °F -  
Max Temperature 55 °F 60 °F 75 °F (2008)
Min Temperature 46 °F 48 °F 42 °F (2000)
Degree Days  
Heating Degree Days 14    
Moisture  
Dew Point 44 °F    
Average Humidity 78    
Maximum Humidity 88    
Minimum Humidity 67    
Precipitation  
Precipitation 0.07 in - - ()
Sea Level Pressure  
Sea Level Pressure 29.91 in    
Wind  
Wind Speed 7 mph (SSE)    
Max Wind Speed 12 mph    
Max Gust Speed -    
Visibility 10 miles    
Events      
Averages and records for this station are not official NWS values.
T = Trace of Precipitation, MM = Missing Value Source: NWS Daily Summary

Daily Weather History Graph

Daily Weather History Graph

Search for Another Location

Airport or City:

Trip Planner

Search our weather history database for the weather conditions in past years. The results will help you decide how hot, cold, wet, or windy it might be!

Date:

Astronomy

Jul. 05, 2013 Rise Set
Actual Time 3:17 AM AKDT 2:12 AM AKDT
Civil Twilight Sun does not rise Sun does not rise
Nautical Twilight Sun does not rise Sun does not rise
Astronomical Twilight Sun does not rise Sun does not rise
Moon 2:43 AM AKDT (7/5) 11:00 PM AKDT (7/5)
Length of Visible Light 24h 00m
Length of Day
22h 55m
Waning Crescent, 5% of the Moon is Illuminated
Jul 5
Waning Crescent
Jul 7
New
Jul 15
First Quarter
Jul 22
Full
Jul 29
Last Quarter

Hourly Weather History & Observations

Time (AKDT) Temp. Windchill Dew Point Humidity Pressure Visibility Wind Dir Wind Speed Gust Speed Precip Events Conditions
12:16 AM 50.0 °F - 42.8 °F 76% 29.88 in 10.0 mi South 8.1 mph - N/A   Overcast
12:36 AM 48.2 °F - 41.0 °F 76% 29.88 in 10.0 mi SSW 9.2 mph - N/A   Overcast
12:56 AM 48.2 °F - 41.0 °F 76% 29.89 in 10.0 mi SSW 4.6 mph - N/A   Overcast
1:16 AM 48.2 °F - 42.8 °F 82% 29.89 in 10.0 mi South 8.1 mph - N/A   Overcast
1:36 AM 48.2 °F - 42.8 °F 82% 29.90 in 10.0 mi South 5.8 mph - N/A   Overcast
1:56 AM 48.2 °F - 42.8 °F 82% 29.90 in 10.0 mi South 5.8 mph - N/A   Mostly Cloudy
2:16 AM 46.4 °F 43.5 °F 42.8 °F 87% 29.90 in 5.0 mi South 5.8 mph - N/A   Overcast
2:36 AM 48.2 °F - 41.0 °F 76% 29.90 in 9.0 mi South 4.6 mph - N/A   Overcast
2:56 AM 48.2 °F - 41.0 °F 76% 29.91 in 10.0 mi South 6.9 mph - N/A   Overcast
3:16 AM 46.4 °F 42.9 °F 41.0 °F 81% 29.91 in 10.0 mi South 6.9 mph - N/A   Overcast
3:36 AM 46.4 °F 42.9 °F 41.0 °F 81% 29.92 in 10.0 mi South 6.9 mph - N/A   Overcast
3:56 AM 46.4 °F 41.9 °F 42.8 °F 87% 29.91 in 10.0 mi South 9.2 mph - N/A   Overcast
4:16 AM 46.4 °F 41.9 °F 41.0 °F 81% 29.92 in 10.0 mi South 9.2 mph - N/A   Overcast
4:36 AM 46.4 °F 42.9 °F 41.0 °F 81% 29.91 in 10.0 mi South 6.9 mph - N/A   Overcast
4:56 AM 46.4 °F 42.4 °F 41.0 °F 81% 29.91 in 10.0 mi South 8.1 mph - N/A   Overcast
5:16 AM 48.2 °F - 41.0 °F 76% 29.91 in 10.0 mi South 8.1 mph - N/A   Overcast
5:36 AM 48.2 °F - 41.0 °F 76% 29.91 in 10.0 mi South 6.9 mph - N/A   Overcast
5:56 AM 48.2 °F - 41.0 °F 76% 29.91 in 10.0 mi SSE 5.8 mph - N/A   Overcast
6:16 AM 48.2 °F - 42.8 °F 82% 29.91 in 10.0 mi ESE 8.1 mph - N/A   Overcast
6:36 AM 48.2 °F - 42.8 °F 82% 29.91 in 10.0 mi SE 8.1 mph - N/A   Overcast
6:56 AM 48.2 °F - 42.8 °F 82% 29.91 in 10.0 mi ESE 9.2 mph - N/A   Overcast
7:16 AM 48.2 °F - 42.8 °F 82% 29.91 in 10.0 mi SE 9.2 mph - N/A   Overcast
7:36 AM 48.2 °F - 42.8 °F 82% 29.91 in 10.0 mi SE 9.2 mph - N/A   Overcast
7:56 AM 48.2 °F - 42.8 °F 82% 29.91 in 10.0 mi SSE 10.4 mph - N/A   Overcast
8:16 AM 50.0 °F - 42.8 °F 76% 29.91 in 10.0 mi SE 8.1 mph - N/A   Overcast
8:36 AM 50.0 °F - 42.8 °F 76% 29.92 in 10.0 mi SE 9.2 mph - N/A   Overcast
8:56 AM 48.2 °F - 44.6 °F 87% 29.92 in 10.0 mi SE 8.1 mph - N/A   Overcast
9:16 AM 48.2 °F - 44.6 °F 87% 29.92 in 10.0 mi SE 6.9 mph - N/A   Overcast
9:36 AM 48.2 °F - 44.6 °F 87% 29.92 in 10.0 mi SE 9.2 mph - N/A   Overcast
9:56 AM 50.0 °F - 44.6 °F 82% 29.92 in 10.0 mi SE 9.2 mph - N/A   Overcast
10:16 AM 50.0 °F - 44.6 °F 82% 29.92 in 10.0 mi SE 8.1 mph - N/A   Overcast
10:36 AM 51.8 °F - 42.8 °F 71% 29.92 in 10.0 mi SSE 10.4 mph - N/A   Overcast
10:56 AM 53.6 °F - 42.8 °F 67% 29.92 in 10.0 mi SSE 9.2 mph - N/A   Overcast
11:16 AM 53.6 °F - 42.8 °F 67% 29.92 in 10.0 mi SSE 6.9 mph - N/A   Overcast
11:36 AM 51.8 °F - 44.6 °F 76% 29.92 in 10.0 mi SE 8.1 mph - N/A   Overcast
11:56 AM 53.6 °F - 44.6 °F 72% 29.92 in 10.0 mi SE 8.1 mph - N/A   Overcast
12:16 PM 53.6 °F - 44.6 °F 72% 29.91 in 10.0 mi SE 9.2 mph - N/A   Mostly Cloudy
12:36 PM 55.4 °F - 44.6 °F 67% 29.91 in 10.0 mi SE 9.2 mph - N/A   Overcast
12:56 PM 55.4 °F - 44.6 °F 67% 29.91 in 10.0 mi SE 11.5 mph - N/A   Overcast
1:16 PM 53.6 °F - 44.6 °F 72% 29.92 in 10.0 mi SW 10.4 mph - N/A   Mostly Cloudy
1:36 PM 53.6 °F - 42.8 °F 67% 29.92 in 10.0 mi SSW 10.4 mph - N/A   Overcast
1:56 PM 51.8 °F - 44.6 °F 76% 29.92 in 10.0 mi South 6.9 mph - N/A   Overcast
2:16 PM 53.6 °F - 44.6 °F 72% 29.92 in 10.0 mi SE 6.9 mph - N/A   Overcast
2:36 PM 53.6 °F - 44.6 °F 72% 29.92 in 10.0 mi SSE 6.9 mph - N/A   Overcast
2:56 PM 55.4 °F - 44.6 °F 67% 29.92 in 10.0 mi South 10.4 mph - N/A   Overcast
3:16 PM 55.4 °F - 44.6 °F 67% 29.92 in 10.0 mi South 9.2 mph - N/A   Overcast
3:36 PM 55.4 °F - 44.6 °F 67% 29.92 in 10.0 mi SSE 6.9 mph - N/A   Overcast
3:56 PM 55.4 °F - 44.6 °F 67% 29.92 in 10.0 mi South 9.2 mph - N/A   Overcast
4:16 PM 53.6 °F - 42.8 °F 67% 29.92 in 10.0 mi South 6.9 mph - N/A   Overcast
4:36 PM 53.6 °F - 44.6 °F 72% 29.92 in 10.0 mi South 6.9 mph - N/A   Overcast
4:56 PM 53.6 °F - 44.6 °F 72% 29.92 in 10.0 mi SSW 4.6 mph - N/A   Overcast
5:16 PM 53.6 °F - 44.6 °F 72% 29.92 in 10.0 mi SW 6.9 mph - N/A   Overcast
5:36 PM 51.8 °F - 44.6 °F 76% 29.92 in 10.0 mi SW 4.6 mph - N/A   Overcast
5:56 PM 51.8 °F - 46.4 °F 82% 29.92 in 10.0 mi SSW 4.6 mph - N/A   Overcast
6:16 PM 51.8 °F - 46.4 °F 82% 29.92 in 10.0 mi SSE 4.6 mph - 0.01 in   Overcast
6:36 PM 51.8 °F - 46.4 °F 82% 29.92 in 10.0 mi Calm Calm - 0.01 in   Overcast
6:56 PM 51.8 °F - 46.4 °F 82% 29.92 in 10.0 mi ESE 4.6 mph - 0.01 in   Overcast
7:16 PM 51.8 °F - 48.2 °F 88% 29.92 in 10.0 mi East 4.6 mph - N/A   Overcast
7:36 PM 51.8 °F - 46.4 °F 82% 29.92 in 10.0 mi SE 4.6 mph - N/A   Overcast
7:56 PM 53.6 °F - 46.4 °F 77% 29.92 in 10.0 mi SE 3.5 mph - N/A   Mostly Cloudy
8:16 PM 53.6 °F - 46.4 °F 77% 29.92 in 10.0 mi SE 3.5 mph - N/A   Overcast
8:36 PM 53.6 °F - 46.4 °F 77% 29.92 in 10.0 mi ESE 4.6 mph - N/A   Overcast
8:56 PM 53.6 °F - 46.4 °F 77% 29.92 in 10.0 mi SE 4.6 mph - N/A   Overcast
9:16 PM 53.6 °F - 46.4 °F 77% 29.92 in 10.0 mi South 3.5 mph - N/A   Overcast
9:36 PM 53.6 °F - 46.4 °F 77% 29.92 in 10.0 mi South 3.5 mph - N/A   Overcast
9:56 PM 53.6 °F - 46.4 °F 77% 29.92 in 9.0 mi SSE 4.6 mph - N/A   Overcast
10:16 PM 51.8 °F - 46.4 °F 82% 29.92 in 10.0 mi ESE 3.5 mph - N/A   Overcast
10:36 PM 51.8 °F - 46.4 °F 82% 29.92 in 10.0 mi Calm Calm - N/A   Overcast
10:56 PM 51.8 °F - 46.4 °F 82% 29.92 in 7.0 mi Calm Calm - 0.03 in   Overcast
11:16 PM 51.8 °F - 48.2 °F 88% 29.92 in 10.0 mi East 4.6 mph - 0.02 in   Overcast
11:36 PM 51.8 °F - 48.2 °F 88% 29.92 in 10.0 mi SSE 6.9 mph - 0.02 in   Overcast
11:56 PM 51.8 °F - 48.2 °F 88% 29.93 in 10.0 mi SSE 3.5 mph - 0.03 in   Overcast